status,avgMeasuredTime,avgSpeed,extID,medianMeasuredTime,TIMESTAMP,vehicleCount,_id,REPORT_ID
OK,136,39,614,136,2014-08-01T07:50:00,0,20746166,198139
OK,136,39,614,136,2014-08-01T07:55:00,0,20746338,198139
OK,136,39,614,136,2014-08-01T08:00:00,0,20746669,198139
OK,130,40,614,130,2014-08-01T08:05:00,2,20747118,198139
OK,130,40,614,130,2014-08-01T08:10:00,2,20747491,198139
OK,130,40,614,130,2014-08-01T08:15:00,0,20747940,198139
OK,130,40,614,130,2014-08-01T08:20:00,0,20748389,198139
OK,130,40,614,130,2014-08-01T08:25:00,0,20748838,198139
OK,130,40,614,130,2014-08-01T08:30:00,0,20749287,198139
OK,130,40,614,130,2014-08-01T08:35:00,0,20749736,198139
OK,130,40,614,130,2014-08-01T08:40:00,0,20750185,198139
OK,130,40,614,130,2014-08-01T08:45:00,0,20750634,198139
OK,234,22,614,234,2014-08-01T08:50:00,1,20751083,198139
OK,174,30,614,174,2014-08-01T08:55:00,2,20751532,198139
OK,114,46,614,114,2014-08-01T09:00:00,0,20751981,198139
OK,114,46,614,114,2014-08-01T09:05:00,0,20752430,198139
OK,148,35,614,148,2014-08-01T09:10:00,1,20752879,198139
OK,148,35,614,148,2014-08-01T09:15:00,1,20753328,198139
OK,137,38,614,137,2014-08-01T09:20:00,2,20753777,198139
OK,137,38,614,137,2014-08-01T09:25:00,2,20754226,198139
OK,131,40,614,131,2014-08-01T09:30:00,0,20754675,198139
OK,109,48,614,109,2014-08-01T09:35:00,1,20755124,198139
OK,146,36,614,146,2014-08-01T09:40:00,1,20755573,198139
OK,146,36,614,146,2014-08-01T09:45:00,1,20756022,198139
OK,132,40,614,132,2014-08-01T09:50:00,1,20756471,198139
OK,129,41,614,129,2014-08-01T09:55:00,2,20756920,198139
OK,126,42,614,126,2014-08-01T10:00:00,1,20757369,198139
OK,134,39,614,134,2014-08-01T10:05:00,1,20757818,198139
OK,134,39,614,134,2014-08-01T10:10:00,1,20758267,198139
OK,134,39,614,134,2014-08-01T10:15:00,0,20758716,198139
OK,133,39,614,133,2014-08-01T10:20:00,1,20759165,198139
OK,133,39,614,133,2014-08-01T10:25:00,1,20759614,198139
OK,125,42,614,125,2014-08-01T10:30:00,1,20760063,198139
OK,127,41,614,127,2014-08-01T10:35:00,2,20760512,198139
OK,130,40,614,130,2014-08-01T10:40:00,1,20760961,198139
OK,130,40,614,130,2014-08-01T10:45:00,0,20761410,198139
OK,130,40,614,130,2014-08-01T10:50:00,0,20761859,198139
OK,127,41,614,127,2014-08-01T10:55:00,1,20762308,198139
OK,130,40,614,130,2014-08-01T11:00:00,2,20762757,198139
OK,134,39,614,134,2014-08-01T11:05:00,1,20763206,198139
OK,134,39,614,134,2014-08-01T11:10:00,0,20763655,198139
OK,134,39,614,134,2014-08-01T11:15:00,0,20764104,198139
OK,171,31,614,171,2014-08-01T11:20:00,2,20764552,198139
OK,123,43,614,123,2014-08-01T11:25:00,4,20765001,198139
OK,115,46,614,115,2014-08-01T11:30:00,3,20765450,198139
OK,138,38,614,138,2014-08-01T11:35:00,3,20765899,198139
OK,138,38,614,138,2014-08-01T11:40:00,3,20766348,198139
OK,127,41,614,127,2014-08-01T11:45:00,2,20766797,198139
OK,128,41,614,128,2014-08-01T11:50:00,1,20767246,198139
OK,111,47,614,111,2014-08-01T11:55:00,1,20767695,198139
OK,111,47,614,111,2014-08-01T12:00:00,1,20768144,198139
OK,122,43,614,122,2014-08-01T12:05:00,1,20768593,198139
OK,122,43,614,122,2014-08-01T12:10:00,1,20769042,198139
OK,154,34,614,154,2014-08-01T12:15:00,1,20769491,198139
OK,144,36,614,144,2014-08-01T12:20:00,4,20769940,198139
OK,143,37,614,143,2014-08-01T12:25:00,3,20770389,198139
OK,142,37,614,142,2014-08-01T12:30:00,3,20770838,198139
OK,141,37,614,141,2014-08-01T12:35:00,4,20771287,198139
OK,122,43,614,122,2014-08-01T12:40:00,2,20771736,198139
OK,135,39,614,135,2014-08-01T12:45:00,3,20772185,198139
OK,129,41,614,129,2014-08-01T12:50:00,2,20772634,198139
OK,130,40,614,130,2014-08-01T12:55:00,1,20773083,198139
OK,130,40,614,130,2014-08-01T13:00:00,0,20773532,198139
OK,130,40,614,130,2014-08-01T13:05:00,0,20773981,198139
OK,128,41,614,128,2014-08-01T13:10:00,2,20774430,198139
OK,128,41,614,128,2014-08-01T13:15:00,4,20774879,198139
OK,129,41,614,129,2014-08-01T13:20:00,4,20775328,198139
OK,129,41,614,129,2014-08-01T13:25:00,2,20775777,198139
OK,146,36,614,146,2014-08-01T13:30:00,0,20776226,198139
OK,145,36,614,145,2014-08-01T13:35:00,1,20776675,198139
OK,123,43,614,123,2014-08-01T13:40:00,2,20777124,198139
OK,102,52,614,102,2014-08-01T13:45:00,1,20777573,198139
OK,102,52,614,102,2014-08-01T13:50:00,0,20778022,198139
OK,139,38,614,139,2014-08-01T13:55:00,2,20778471,198139
OK,138,38,614,138,2014-08-01T14:00:00,3,20778920,198139
OK,110,48,614,110,2014-08-01T14:05:00,1,20779369,198139
OK,145,36,614,145,2014-08-01T14:10:00,2,20779818,198139
OK,100,53,614,100,2014-08-01T14:15:00,1,20780267,198139
OK,219,24,614,219,2014-08-01T14:20:00,3,20780716,198139
OK,177,29,614,177,2014-08-01T14:25:00,4,20781165,198139
OK,133,39,614,133,2014-08-01T14:30:00,2,20781614,198139
OK,125,42,614,125,2014-08-01T14:35:00,2,20782063,198139
OK,119,44,614,119,2014-08-01T14:40:00,0,20782512,198139
OK,119,44,614,119,2014-08-01T14:45:00,0,20782961,198139
OK,119,44,614,119,2014-08-01T14:50:00,0,20783410,198139
OK,114,46,614,114,2014-08-01T14:55:00,3,20783859,198139
OK,114,46,614,114,2014-08-01T15:00:00,5,20784308,198139
OK,136,39,614,136,2014-08-01T15:05:00,3,20784757,198139
OK,136,39,614,136,2014-08-01T15:10:00,1,20785206,198139
OK,113,46,614,113,2014-08-01T15:15:00,2,20785655,198139
OK,109,48,614,109,2014-08-01T15:20:00,2,20786104,198139
OK,118,44,614,118,2014-08-01T15:25:00,2,20786553,198139
OK,133,39,614,133,2014-08-01T15:30:00,1,20787002,198139
OK,133,39,614,133,2014-08-01T15:35:00,0,20787451,198139
OK,120,44,614,120,2014-08-01T15:40:00,2,20787900,198139
OK,114,46,614,114,2014-08-01T15:45:00,3,20788349,198139
OK,133,39,614,133,2014-08-01T15:50:00,1,20788798,198139
OK,133,39,614,133,2014-08-01T15:55:00,1,20789247,198139
OK,102,52,614,102,2014-08-01T16:00:00,2,20789696,198139
OK,108,49,614,108,2014-08-01T16:05:00,1,20790145,198139
OK,108,49,614,108,2014-08-01T16:10:00,0,20790594,198139
OK,131,40,614,131,2014-08-01T16:15:00,1,20791043,198139
OK,131,40,614,131,2014-08-01T16:20:00,1,20791492,198139
OK,131,40,614,131,2014-08-01T16:25:00,0,20791941,198139
OK,131,40,614,131,2014-08-01T16:30:00,0,20792390,198139
OK,131,40,614,131,2014-08-01T16:35:00,0,20792839,198139
OK,131,40,614,131,2014-08-01T16:40:00,0,20793288,198139
OK,131,40,614,131,2014-08-01T16:45:00,0,20793737,198139
OK,131,40,614,131,2014-08-01T16:50:00,0,20794186,198139
OK,131,40,614,131,2014-08-01T16:55:00,0,20794635,198139
OK,131,40,614,131,2014-08-01T17:00:00,0,20795084,198139
OK,119,44,614,119,2014-08-01T17:05:00,1,20795533,198139
OK,119,44,614,119,2014-08-01T17:10:00,1,20795982,198139
OK,134,39,614,134,2014-08-01T17:15:00,1,20796431,198139
OK,134,39,614,134,2014-08-01T17:20:00,1,20796880,198139
OK,134,39,614,134,2014-08-01T17:25:00,0,20797329,198139
OK,134,39,614,134,2014-08-01T17:30:00,0,20797778,198139
OK,134,39,614,134,2014-08-01T17:35:00,0,20798227,198139
OK,134,39,614,134,2014-08-01T17:40:00,0,20798676,198139
OK,92,57,614,92,2014-08-01T17:45:00,1,20799125,198139
OK,92,57,614,92,2014-08-01T17:50:00,1,20799574,198139
OK,92,57,614,92,2014-08-01T17:55:00,0,20800023,198139
OK,108,49,614,108,2014-08-01T18:00:00,1,20800472,198139
OK,127,41,614,127,2014-08-01T18:05:00,2,20800921,198139
OK,147,36,614,147,2014-08-01T18:10:00,0,20801370,198139
OK,147,36,614,147,2014-08-01T18:15:00,0,20801819,198139
OK,147,36,614,147,2014-08-01T18:20:00,0,20802268,198139
OK,147,36,614,147,2014-08-01T18:25:00,0,20802717,198139
OK,147,36,614,147,2014-08-01T18:30:00,0,20803166,198139
OK,147,36,614,147,2014-08-01T18:35:00,0,20803615,198139
OK,75,70,614,75,2014-08-01T18:40:00,1,20804064,198139
OK,75,70,614,75,2014-08-01T18:45:00,1,20804513,198139
OK,110,48,614,110,2014-08-01T18:50:00,1,20804962,198139
OK,143,37,614,143,2014-08-01T18:55:00,3,20805411,198139
OK,143,37,614,143,2014-08-01T19:00:00,1,20805860,198139
OK,143,37,614,143,2014-08-01T19:05:00,0,20806309,198139
OK,143,37,614,143,2014-08-01T19:10:00,0,20806758,198139
OK,143,37,614,143,2014-08-01T19:15:00,0,20807207,198139
OK,132,40,614,132,2014-08-01T19:20:00,2,20807656,198139
OK,132,40,614,132,2014-08-01T19:25:00,2,20808105,198139
OK,129,41,614,129,2014-08-01T19:30:00,0,20808554,198139
OK,129,41,614,129,2014-08-01T19:35:00,0,20809003,198139
OK,129,41,614,129,2014-08-01T19:40:00,0,20809452,198139
OK,129,41,614,129,2014-08-01T19:45:00,0,20809901,198139
OK,107,49,614,107,2014-08-01T19:50:00,1,20810350,198139
OK,107,49,614,107,2014-08-01T19:55:00,0,20810799,198139
OK,107,49,614,107,2014-08-01T20:00:00,0,20811247,198139
OK,107,49,614,107,2014-08-01T20:05:00,0,20811421,198139
OK,107,49,614,107,2014-08-01T20:10:00,0,20811621,198139
OK,107,49,614,107,2014-08-01T20:15:00,0,20811829,198139
OK,107,49,614,107,2014-08-01T20:20:00,0,20812036,198139
OK,107,49,614,107,2014-08-01T20:25:00,0,20812257,198139
OK,107,49,614,107,2014-08-01T20:30:00,0,20812470,198139
OK,107,49,614,107,2014-08-01T20:35:00,0,20812679,198139
OK,107,49,614,107,2014-08-01T20:40:00,0,20812882,198139
OK,124,42,614,124,2014-08-01T20:45:00,1,20813087,198139
OK,124,42,614,124,2014-08-01T20:50:00,1,20813298,198139
OK,124,42,614,124,2014-08-01T20:55:00,0,20813528,198139
OK,124,42,614,124,2014-08-01T21:00:00,0,20813766,198139
OK,124,42,614,124,2014-08-01T21:05:00,0,20813945,198139
OK,124,42,614,124,2014-08-01T21:10:00,0,20814183,198139
OK,124,42,614,124,2014-08-01T21:15:00,0,20814380,198139
OK,124,42,614,124,2014-08-01T21:20:00,0,20814585,198139
OK,124,42,614,124,2014-08-01T21:25:00,0,20814816,198139
OK,124,42,614,124,2014-08-01T21:30:00,0,20815090,198139
OK,106,50,614,106,2014-08-01T21:35:00,1,20815324,198139
OK,106,50,614,106,2014-08-01T21:40:00,0,20815547,198139
OK,106,50,614,106,2014-08-01T21:45:00,0,20815784,198139
OK,106,50,614,106,2014-08-01T21:50:00,0,20816025,198139
OK,106,50,614,106,2014-08-01T21:55:00,0,20816260,198139
OK,106,50,614,106,2014-08-01T22:00:00,0,20816528,198139
OK,106,50,614,106,2014-08-01T22:05:00,0,20816977,198139
OK,106,50,614,106,2014-08-01T22:10:00,0,20817299,198139
OK,106,50,614,106,2014-08-01T22:15:00,0,20817728,198139
OK,106,50,614,106,2014-08-01T22:20:00,0,20818018,198139
OK,106,50,614,106,2014-08-01T22:25:00,0,20818334,198139
OK,197,26,614,197,2014-08-01T22:30:00,1,20818668,198139
OK,197,26,614,197,2014-08-01T22:35:00,0,20818974,198139
OK,197,26,614,197,2014-08-01T22:40:00,0,20819152,198139
OK,197,26,614,197,2014-08-01T22:45:00,0,20819440,198139
OK,197,26,614,197,2014-08-01T22:50:00,0,20819675,198139
OK,197,26,614,197,2014-08-01T22:55:00,0,20819928,198139
OK,197,26,614,197,2014-08-01T23:00:00,0,20820104,198139
OK,197,26,614,197,2014-08-01T23:05:00,0,20820357,198139
OK,197,26,614,197,2014-08-01T23:10:00,0,20820587,198139
OK,197,26,614,197,2014-08-01T23:15:00,0,20820775,198139
OK,197,26,614,197,2014-08-01T23:20:00,0,20821030,198139
OK,197,26,614,197,2014-08-01T23:25:00,0,20821204,198139
OK,197,26,614,197,2014-08-01T23:30:00,0,20821429,198139
OK,197,26,614,197,2014-08-01T23:35:00,0,20821674,198139
OK,197,26,614,197,2014-08-01T23:40:00,0,20821853,198139
OK,197,26,614,197,2014-08-01T23:45:00,0,20822076,198139
OK,197,26,614,197,2014-08-01T23:50:00,0,20822343,198139
OK,197,26,614,197,2014-08-01T23:55:00,0,20822669,198139
OK,197,26,614,197,2014-08-02T00:00:00,0,20822967,198139
OK,197,26,614,197,2014-08-02T00:05:00,0,20823416,198139
OK,197,26,614,197,2014-08-02T00:10:00,0,20823865,198139
OK,197,26,614,197,2014-08-02T00:15:00,0,20824314,198139
OK,197,26,614,197,2014-08-02T00:20:00,0,20824763,198139
OK,197,26,614,197,2014-08-02T00:25:00,0,20825212,198139
OK,197,26,614,197,2014-08-02T00:30:00,0,20825661,198139
OK,197,26,614,197,2014-08-02T00:35:00,0,20826110,198139
OK,144,36,614,144,2014-08-02T00:40:00,1,20826559,198139
OK,144,36,614,144,2014-08-02T00:45:00,1,20827008,198139
OK,144,36,614,144,2014-08-02T00:50:00,0,20827457,198139
OK,144,36,614,144,2014-08-02T00:55:00,0,20827906,198139
OK,144,36,614,144,2014-08-02T01:00:00,0,20828355,198139
OK,144,36,614,144,2014-08-02T01:05:00,0,20828804,198139
OK,144,36,614,144,2014-08-02T01:10:00,0,20829253,198139
OK,144,36,614,144,2014-08-02T01:15:00,0,20829702,198139
OK,144,36,614,144,2014-08-02T01:20:00,0,20830151,198139
OK,144,36,614,144,2014-08-02T01:25:00,0,20830600,198139
OK,144,36,614,144,2014-08-02T01:30:00,0,20831049,198139
OK,144,36,614,144,2014-08-02T01:35:00,0,20831498,198139
OK,144,36,614,144,2014-08-02T01:40:00,0,20831947,198139
OK,144,36,614,144,2014-08-02T01:45:00,0,20832396,198139
OK,144,36,614,144,2014-08-02T01:50:00,0,20832845,198139
OK,144,36,614,144,2014-08-02T01:55:00,0,20833294,198139
OK,144,36,614,144,2014-08-02T02:00:00,0,20833743,198139
OK,144,36,614,144,2014-08-02T02:05:00,0,20834192,198139
OK,144,36,614,144,2014-08-02T02:10:00,0,20834641,198139
OK,144,36,614,144,2014-08-02T02:15:00,0,20835090,198139
OK,144,36,614,144,2014-08-02T02:20:00,0,20835539,198139
OK,144,36,614,144,2014-08-02T02:25:00,0,20835988,198139
OK,144,36,614,144,2014-08-02T02:30:00,0,20836437,198139
OK,144,36,614,144,2014-08-02T02:35:00,0,20836886,198139
OK,144,36,614,144,2014-08-02T02:40:00,0,20837335,198139
OK,144,36,614,144,2014-08-02T02:45:00,0,20837784,198139
OK,144,36,614,144,2014-08-02T02:50:00,0,20838233,198139
OK,144,36,614,144,2014-08-02T02:55:00,0,20838682,198139
OK,144,36,614,144,2014-08-02T03:00:00,0,20839131,198139
OK,144,36,614,144,2014-08-02T03:05:00,0,20839580,198139
OK,144,36,614,144,2014-08-02T03:10:00,0,20840029,198139
OK,144,36,614,144,2014-08-02T03:15:00,0,20840478,198139
OK,144,36,614,144,2014-08-02T03:20:00,0,20840927,198139
OK,144,36,614,144,2014-08-02T03:25:00,0,20841376,198139
OK,154,34,614,154,2014-08-02T03:30:00,1,20841825,198139
OK,154,34,614,154,2014-08-02T03:35:00,1,20842274,198139
OK,154,34,614,154,2014-08-02T03:40:00,0,20842723,198139
OK,154,34,614,154,2014-08-02T03:45:00,0,20843172,198139
OK,154,34,614,154,2014-08-02T03:50:00,0,20843621,198139
OK,154,34,614,154,2014-08-02T03:55:00,0,20844070,198139
OK,154,34,614,154,2014-08-02T04:00:00,0,20844519,198139
OK,154,34,614,154,2014-08-02T04:05:00,0,20844650,198139
OK,154,34,614,154,2014-08-02T04:10:00,0,20844980,198139
OK,154,34,614,154,2014-08-02T04:15:00,0,20845160,198139
OK,154,34,614,154,2014-08-02T04:20:00,0,20845516,198139
OK,154,34,614,154,2014-08-02T04:25:00,0,20845884,198139
OK,154,34,614,154,2014-08-02T04:30:00,0,20846072,198139
OK,154,34,614,154,2014-08-02T04:35:00,0,20846439,198139
OK,88,60,614,88,2014-08-02T04:40:00,1,20846822,198139
OK,88,60,614,88,2014-08-02T04:45:00,0,20847081,198139
OK,88,60,614,88,2014-08-02T04:50:00,0,20847447,198139
OK,88,60,614,88,2014-08-02T04:55:00,0,20847804,198139
OK,88,60,614,88,2014-08-02T05:00:00,0,20848164,198139
OK,88,60,614,88,2014-08-02T05:05:00,0,20848330,198139
OK,88,60,614,88,2014-08-02T05:10:00,0,20848682,198139
OK,88,60,614,88,2014-08-02T05:15:00,0,20848874,198139
OK,88,60,614,88,2014-08-02T05:20:00,0,20849218,198139
OK,88,60,614,88,2014-08-02T05:25:00,0,20849536,198139
OK,88,60,614,88,2014-08-02T05:30:00,0,20849743,198139
OK,88,60,614,88,2014-08-02T05:35:00,0,20850015,198139
OK,88,60,614,88,2014-08-02T05:40:00,0,20850308,198139
OK,88,60,614,88,2014-08-02T05:45:00,0,20850609,198139
OK,88,60,614,88,2014-08-02T05:50:00,0,20850967,198139
OK,88,60,614,88,2014-08-02T05:55:00,0,20851221,198139
OK,88,60,614,88,2014-08-02T06:00:00,0,20851524,198139
OK,88,60,614,88,2014-08-02T06:05:00,0,20851973,198139
OK,88,60,614,88,2014-08-02T06:10:00,0,20852422,198139
OK,88,60,614,88,2014-08-02T06:15:00,0,20852871,198139
OK,88,60,614,88,2014-08-02T06:20:00,0,20853320,198139
OK,88,60,614,88,2014-08-02T06:25:00,0,20853769,198139
OK,88,60,614,88,2014-08-02T06:30:00,0,20854218,198139
OK,88,60,614,88,2014-08-02T06:35:00,0,20854667,198139
OK,88,60,614,88,2014-08-02T06:40:00,0,20855116,198139
OK,88,60,614,88,2014-08-02T06:45:00,0,20855565,198139
OK,88,60,614,88,2014-08-02T06:50:00,0,20856014,198139
OK,88,60,614,88,2014-08-02T06:55:00,0,20856463,198139
OK,88,60,614,88,2014-08-02T07:00:00,0,20856912,198139
OK,88,60,614,88,2014-08-02T07:05:00,0,20857361,198139
OK,88,60,614,88,2014-08-02T07:10:00,0,20857810,198139
OK,88,60,614,88,2014-08-02T07:15:00,0,20858259,198139
OK,88,60,614,88,2014-08-02T07:20:00,0,20858708,198139
OK,88,60,614,88,2014-08-02T07:25:00,0,20859157,198139
OK,88,60,614,88,2014-08-02T07:30:00,0,20859606,198139
OK,158,33,614,158,2014-08-02T07:35:00,0,20860055,198139
OK,158,33,614,158,2014-08-02T07:40:00,0,20860504,198139
OK,121,43,614,121,2014-08-02T07:45:00,1,20860953,198139
OK,121,43,614,121,2014-08-02T07:50:00,1,20861402,198139
OK,121,43,614,121,2014-08-02T07:55:00,0,20861851,198139
OK,121,43,614,121,2014-08-02T08:00:00,0,20862300,198139
OK,121,43,614,121,2014-08-02T08:05:00,0,20862749,198139
OK,121,43,614,121,2014-08-02T08:10:00,0,20863198,198139
OK,121,43,614,121,2014-08-02T08:15:00,0,20863647,198139
OK,181,29,614,181,2014-08-02T08:20:00,1,20864096,198139
OK,110,48,614,110,2014-08-02T08:25:00,6,20864545,198139
OK,119,44,614,119,2014-08-02T08:30:00,7,20864994,198139
OK,130,40,614,130,2014-08-02T08:35:00,0,20865443,198139
OK,105,50,614,105,2014-08-02T08:40:00,1,20865892,198139
OK,105,50,614,105,2014-08-02T08:45:00,0,20866341,198139
OK,105,50,614,105,2014-08-02T08:50:00,0,20866790,198139
OK,105,50,614,105,2014-08-02T08:55:00,0,20867239,198139
OK,151,35,614,151,2014-08-02T09:00:00,1,20867688,198139
OK,140,37,614,140,2014-08-02T09:05:00,2,20868137,198139
OK,129,41,614,129,2014-08-02T09:10:00,1,20868586,198139
OK,90,58,614,90,2014-08-02T09:15:00,1,20869035,198139
OK,134,39,614,134,2014-08-02T09:20:00,3,20869484,198139
OK,173,30,614,173,2014-08-02T09:25:00,2,20869933,198139
OK,134,39,614,134,2014-08-02T09:30:00,0,20870382,198139
OK,83,63,614,83,2014-08-02T09:35:00,0,20870831,198139
OK,108,49,614,108,2014-08-02T09:40:00,1,20871280,198139
OK,108,49,614,108,2014-08-02T09:45:00,1,20871729,198139
OK,108,49,614,108,2014-08-02T09:50:00,0,20872178,198139
OK,108,49,614,108,2014-08-02T09:55:00,0,20872627,198139
OK,108,49,614,108,2014-08-02T10:00:00,0,20873076,198139
OK,183,28,614,183,2014-08-02T10:05:00,1,20873525,198139
OK,183,28,614,183,2014-08-02T10:10:00,0,20873974,198139
OK,183,28,614,183,2014-08-02T10:15:00,0,20874423,198139
OK,127,41,614,127,2014-08-02T10:20:00,1,20874872,198139
OK,125,42,614,125,2014-08-02T10:25:00,1,20875321,198139
OK,119,44,614,119,2014-08-02T10:30:00,1,20875770,198139
OK,117,45,614,117,2014-08-02T10:35:00,3,20876219,198139
OK,111,47,614,111,2014-08-02T10:40:00,2,20876668,198139
OK,105,50,614,105,2014-08-02T10:45:00,0,20877117,198139
OK,148,35,614,148,2014-08-02T10:50:00,2,20877566,198139
OK,104,51,614,104,2014-08-02T10:55:00,3,20878015,198139
OK,112,47,614,112,2014-08-02T11:00:00,2,20878464,198139
OK,97,54,614,97,2014-08-02T11:05:00,1,20878913,198139
OK,97,54,614,97,2014-08-02T11:10:00,1,20879362,198139
OK,97,54,614,97,2014-08-02T11:15:00,0,20879811,198139
OK,162,32,614,162,2014-08-02T11:20:00,1,20880260,198139
OK,162,32,614,162,2014-08-02T11:25:00,1,20880709,198139
OK,125,42,614,125,2014-08-02T11:30:00,2,20881158,198139
OK,117,45,614,117,2014-08-02T11:35:00,1,20881607,198139
OK,117,45,614,117,2014-08-02T11:40:00,0,20882056,198139
OK,117,45,614,117,2014-08-02T11:45:00,0,20882505,198139
OK,136,39,614,136,2014-08-02T11:50:00,1,20882954,198139
OK,153,34,614,153,2014-08-02T11:55:00,2,20883403,198139
OK,150,35,614,150,2014-08-02T12:00:00,2,20883852,198139
OK,150,35,614,150,2014-08-02T12:05:00,0,20884301,198139
OK,150,35,614,150,2014-08-02T12:10:00,0,20884750,198139
OK,150,35,614,150,2014-08-02T12:15:00,0,20885199,198139
OK,106,50,614,106,2014-08-02T12:20:00,1,20885648,198139
OK,117,45,614,117,2014-08-02T12:25:00,1,20886097,198139
OK,112,47,614,112,2014-08-02T12:30:00,1,20886546,198139
OK,112,47,614,112,2014-08-02T12:35:00,0,20886995,198139
OK,112,47,614,112,2014-08-02T12:40:00,0,20887444,198139
OK,112,47,614,112,2014-08-02T12:45:00,0,20887893,198139
OK,112,47,614,112,2014-08-02T12:50:00,0,20888342,198139
OK,112,47,614,112,2014-08-02T12:55:00,0,20888791,198139
OK,120,44,614,120,2014-08-02T13:00:00,2,20889240,198139
OK,98,54,614,98,2014-08-02T13:05:00,1,20889689,198139
OK,76,69,614,76,2014-08-02T13:10:00,1,20890138,198139
OK,76,69,614,76,2014-08-02T13:15:00,0,20890587,198139
OK,117,45,614,117,2014-08-02T13:20:00,2,20891036,198139
OK,132,40,614,132,2014-08-02T13:25:00,1,20891485,198139
OK,132,40,614,132,2014-08-02T13:30:00,0,20891934,198139
OK,132,40,614,132,2014-08-02T13:35:00,0,20892383,198139
OK,106,50,614,106,2014-08-02T13:40:00,1,20892832,198139
OK,106,50,614,106,2014-08-02T13:45:00,1,20893281,198139
OK,106,50,614,106,2014-08-02T13:50:00,0,20893730,198139
OK,106,50,614,106,2014-08-02T13:55:00,0,20894179,198139
OK,106,50,614,106,2014-08-02T14:00:00,0,20894628,198139
OK,106,50,614,106,2014-08-02T14:05:00,0,20895077,198139
OK,106,50,614,106,2014-08-02T14:10:00,0,20895526,198139
OK,106,50,614,106,2014-08-02T14:15:00,0,20895975,198139
OK,106,50,614,106,2014-08-02T14:20:00,0,20896424,198139
OK,112,47,614,112,2014-08-02T14:25:00,1,20896873,198139
OK,112,47,614,112,2014-08-02T14:30:00,1,20897322,198139
OK,114,46,614,114,2014-08-02T14:35:00,1,20897771,198139
OK,134,39,614,134,2014-08-02T14:40:00,2,20898220,198139
OK,104,51,614,104,2014-08-02T14:45:00,3,20898669,198139
OK,104,51,614,104,2014-08-02T14:50:00,0,20899118,198139
OK,104,51,614,104,2014-08-02T14:55:00,0,20899567,198139
OK,104,51,614,104,2014-08-02T15:00:00,0,20900016,198139
OK,104,51,614,104,2014-08-02T15:05:00,0,20900465,198139
OK,104,51,614,104,2014-08-02T15:10:00,0,20900914,198139
OK,90,58,614,90,2014-08-02T15:15:00,1,20901363,198139
OK,90,58,614,90,2014-08-02T15:20:00,1,20901812,198139
OK,90,58,614,90,2014-08-02T15:25:00,0,20902261,198139
OK,90,58,614,90,2014-08-02T15:30:00,0,20902710,198139
OK,78,68,614,78,2014-08-02T15:35:00,1,20903159,198139
OK,78,68,614,78,2014-08-02T15:40:00,1,20903608,198139
OK,150,35,614,150,2014-08-02T15:45:00,1,20904057,198139
OK,150,35,614,150,2014-08-02T15:50:00,1,20904506,198139
OK,150,35,614,150,2014-08-02T15:55:00,0,20904955,198139
OK,150,35,614,150,2014-08-02T16:00:00,0,20905404,198139
OK,150,35,614,150,2014-08-02T16:05:00,0,20905853,198139
OK,102,52,614,102,2014-08-02T16:10:00,2,20906302,198139
OK,102,52,614,102,2014-08-02T16:15:00,2,20906751,198139
OK,141,37,614,141,2014-08-02T16:20:00,3,20907200,198139
OK,141,37,614,141,2014-08-02T16:25:00,3,20907649,198139
OK,122,43,614,122,2014-08-02T16:30:00,3,20908098,198139
OK,120,44,614,120,2014-08-02T16:35:00,2,20908547,198139
OK,112,47,614,112,2014-08-02T16:40:00,0,20908996,198139
OK,112,47,614,112,2014-08-02T16:45:00,0,20909445,198139
OK,112,47,614,112,2014-08-02T16:50:00,1,20909894,198139
OK,112,47,614,112,2014-08-02T16:55:00,0,20910343,198139
OK,112,47,614,112,2014-08-02T17:00:00,0,20910792,198139
OK,107,49,614,107,2014-08-02T17:05:00,1,20911241,198139
OK,107,49,614,107,2014-08-02T17:10:00,0,20911690,198139
OK,107,49,614,107,2014-08-02T17:15:00,0,20912139,198139
OK,107,49,614,107,2014-08-02T17:20:00,0,20912588,198139
OK,107,49,614,107,2014-08-02T17:25:00,0,20913037,198139
OK,107,49,614,107,2014-08-02T17:30:00,0,20913486,198139
OK,107,49,614,107,2014-08-02T17:35:00,0,20913935,198139
OK,107,49,614,107,2014-08-02T17:40:00,0,20914384,198139
OK,107,49,614,107,2014-08-02T17:45:00,0,20914833,198139
OK,107,49,614,107,2014-08-02T17:50:00,0,20915282,198139
OK,107,49,614,107,2014-08-02T17:55:00,0,20915731,198139
OK,107,49,614,107,2014-08-02T18:00:00,0,20916180,198139
OK,107,49,614,107,2014-08-02T18:05:00,0,20916629,198139
OK,107,49,614,107,2014-08-02T18:10:00,0,20917078,198139
OK,107,49,614,107,2014-08-02T18:15:00,0,20917527,198139
OK,107,49,614,107,2014-08-02T18:20:00,0,20917976,198139
OK,107,49,614,107,2014-08-02T18:25:00,0,20918425,198139
OK,107,49,614,107,2014-08-02T18:30:00,0,20918874,198139
OK,107,49,614,107,2014-08-02T18:35:00,0,20919323,198139
OK,106,50,614,106,2014-08-02T18:40:00,1,20919772,198139
OK,106,50,614,106,2014-08-02T18:45:00,1,20920221,198139
OK,106,50,614,106,2014-08-02T18:50:00,0,20920670,198139